Glendale Luke AFB, AZ

8:59 PM MST on November 11, 2019 (GMT -0700)
Luke Air Force Base

Weather History for KLUF - September, 2019

Change the Weather History Date:

Wednesday, September 25, 2019

  Actual Average Record
Temperature  
Mean Temperature 78 °F -  
Max Temperature 87 °F 98 °F 109 °F (1947)
Min Temperature 69 °F 63 °F 48 °F (1920)
Cooling Degree Days 13    
Growing Degree Days 28 (Base 50)    
Moisture  
Dew Point 62 °F    
Average Humidity 58    
Maximum Humidity 100    
Minimum Humidity 35    
Precipitation  
Precipitation 0.27 in - - ()
Sea Level Pressure  
Sea Level Pressure 29.79 in    
Wind  
Wind Speed 6 mph (NNW)    
Max Wind Speed 28 mph    
Max Gust Speed 32 mph    
Visibility 10 miles    
Events Rain , Thunderstorm    
Averages and records for this station are not official NWS values.
T = Trace of Precipitation, MM = Missing Value Source: NWS Daily Summary

Daily Weather History Graph

Daily Weather History Graph

Search for Another Location

Airport or City:

Astronomy

Sep. 25, 2019 Rise Set
Actual Time 6:19 AM MST 6:22 PM MST
Civil Twilight 5:54 AM MST 6:47 PM MST
Nautical Twilight 5:25 AM MST 7:15 PM MST
Astronomical Twilight 4:56 AM MST 7:45 PM MST
Moon 2:33 AM MST (9/25) 4:43 PM MST (9/25)
Length of Visible Light 12h 52m
Length of Day
12h 02m
Waning Crescent, 13% of the Moon is Illuminated
Sep 25
Waning Crescent
Sep 28
New
Oct 5
First Quarter
Oct 13
Full
Oct 21
Last Quarter

Hourly Weather History & Observations

Time (MST) Temp. Heat Index Dew Point Humidity Pressure Visibility Wind Dir Wind Speed Gust Speed Precip Events Conditions
12:58 AM 74.7 °F - 61.7 °F 64% 29.79 in 10.0 mi Calm Calm - N/A   Clear
1:58 AM 72.1 °F - 65.3 °F 79% 29.79 in 10.0 mi Calm Calm - N/A   Clear
2:58 AM 70.5 °F - 64.8 °F 82% 29.78 in 10.0 mi North 6.9 mph - N/A   Clear
3:58 AM 70.7 °F - 62.4 °F 75% 29.78 in 10.0 mi NE 6.9 mph - N/A   Partly Cloudy
4:58 AM 71.2 °F - 63.7 °F 77% 29.80 in 10.0 mi North 4.6 mph - N/A   Mostly Cloudy
5:58 AM 70.2 °F - 64.4 °F 82% 29.81 in 10.0 mi North 4.6 mph - N/A   Partly Cloudy
6:58 AM 71.2 °F - 64.4 °F 79% 29.83 in 10.0 mi NNW 5.8 mph - N/A   Scattered Clouds
7:58 AM 72.9 °F - 64.8 °F 76% 29.83 in 10.0 mi North 5.8 mph - N/A   Clear
8:58 AM 75.9 °F - 62.8 °F 64% 29.85 in 10.0 mi North 4.6 mph - N/A   Mostly Cloudy
9:58 AM 79.3 °F - 60.1 °F 52% 29.86 in 10.0 mi East 4.6 mph - N/A   Mostly Cloudy
10:58 AM 82.4 °F 82.5 °F 58.8 °F 45% 29.84 in 10.0 mi ENE 8.1 mph - N/A   Mostly Cloudy
11:58 AM 83.5 °F 83.2 °F 58.6 °F 43% 29.83 in 10.0 mi ESE 5.8 mph - N/A   Mostly Cloudy
12:15 PM 84.2 °F 83.8 °F 59.0 °F 42% 29.82 in 10.0 mi ESE 8.1 mph - N/A   Light Drizzle
12:20 PM 84.2 °F 83.5 °F 57.2 °F 40% 29.82 in 10.0 mi East 8.1 mph - N/A   Mostly Cloudy
12:58 PM 83.8 °F 84.3 °F 61.3 °F 47% 29.81 in 10.0 mi SSE 10.4 mph - N/A   Mostly Cloudy
1:58 PM 84.9 °F 84.4 °F 58.5 °F 41% 29.77 in 10.0 mi Calm Calm - N/A   Mostly Cloudy
2:58 PM 87.6 °F 86.5 °F 57.4 °F 36% 29.76 in 10.0 mi SE 8.1 mph - N/A   Mostly Cloudy
3:58 PM 86.9 °F 85.6 °F 56.7 °F 36% 29.75 in 10.0 mi SE 8.1 mph - N/A   Mostly Cloudy
4:01 PM 87.8 °F 86.5 °F 57.2 °F 35% 29.75 in 10.0 mi SE 9.2 mph - N/A   Light Drizzle
4:08 PM 86.0 °F 84.9 °F 57.2 °F 37% 29.75 in 10.0 mi SSE 5.8 mph - N/A   Overcast
4:47 PM 87.8 °F 86.5 °F 57.2 °F 35% 29.74 in 10.0 mi SW 13.8 mph - N/A   Light Drizzle
4:57 PM 86.0 °F 85.4 °F 59.0 °F 40% 29.74 in 10.0 mi SW 13.8 mph - N/A   Overcast
4:58 PM 85.3 °F 84.8 °F 58.8 °F 41% 29.75 in 10.0 mi SW 13.8 mph - 0.00 in   Overcast
5:50 PM 84.2 °F 84.4 °F 60.8 °F 45% 29.74 in 10.0 mi West 6.9 mph - N/A   Mostly Cloudy
5:58 PM 84.2 °F 84.0 °F 59.2 °F 43% 29.74 in 10.0 mi WSW 6.9 mph - N/A   Scattered Clouds
6:48 PM 82.4 °F 82.9 °F 60.8 °F 48% 29.75 in 10.0 mi West 3.5 mph - N/A   Mostly Cloudy
6:56 PM 82.4 °F 82.9 °F 60.8 °F 48% 29.75 in 10.0 mi Calm Calm - N/A   Light Drizzle
6:58 PM 82.6 °F 83.1 °F 60.8 °F 48% 29.75 in 10.0 mi Calm Calm - 0.00 in   Light Drizzle
7:04 PM 82.4 °F 82.9 °F 60.8 °F 48% 29.75 in 10.0 mi Calm Calm - N/A   Mostly Cloudy
7:14 PM 82.4 °F 82.9 °F 60.8 °F 48% 29.75 in 10.0 mi Calm Calm - N/A   Mostly Cloudy
7:57 PM 80.6 °F 81.8 °F 62.6 °F 54% 29.80 in 10.0 mi NNW 4.6 mph - N/A Thunderstorm Mostly Cloudy
7:58 PM 80.6 °F 81.8 °F 62.6 °F 54% 29.80 in 10.0 mi NNW 4.6 mph - N/A Thunderstorm Mostly Cloudy
8:20 PM 80.6 °F 81.8 °F 62.6 °F 54% 29.81 in 8.0 mi SW 27.6 mph 32.2 mph N/A Rain , Thunderstorm Light Rain Showers
8:23 PM 78.8 °F - 64.4 °F 61% 29.80 in 6.0 mi WSW 21.9 mph 32.2 mph N/A Rain , Thunderstorm Light Thunderstorms and Rain
8:51 PM 73.4 °F - 64.4 °F 73% 29.81 in 10.0 mi WSW 13.8 mph - N/A Thunderstorm Mostly Cloudy
9:11 PM 73.4 °F - 64.4 °F 73% 29.83 in 4.0 mi South 10.4 mph - N/A Rain , Thunderstorm Light Thunderstorms and Rain
9:56 PM 69.8 °F - 67.3 °F 92% 29.83 in 10.0 mi NW 11.5 mph - 0.27 in Thunderstorm Overcast
10:52 PM 69.8 °F - 69.8 °F 100% 29.84 in 10.0 mi NNW 9.2 mph - N/A   Scattered Clouds
10:58 PM 69.4 °F - 69.4 °F 100% 29.84 in 10.0 mi NNW 6.9 mph - N/A   Scattered Clouds
11:58 PM 69.6 °F - 69.6 °F 100% 29.86 in 10.0 mi North 5.8 mph - N/A   Mostly Cloudy